Погода в Магнитогорске

Погода в Магнитогорске : погода сейчас, прогноз погоды и архив. Всё, что Вы хотите узнать о погоде в Магнитогорске!

Хотите узнать прогноз погоды в Магнитогорске? Тогда Вам сюда: Погода в Магнитогорске

Поиск расширенной информации на нашем сайте:

Другие новости

Новости СМИ2

Главная страница сайта

Новости сайта

03.07.2017

Напоминаем, что на нашем специализированном сайте Метеоцентр.Азия вы можете получить высокодетализированные автоматические прогнозы погоды по пунктам России, СНГ и мира в авиационном формате (включающие направление и скорость ветра, видимость, явления погоды, количество и форму облачности, нижнюю и верхнюю границу облачности).


Погода в Магнитогорске - сегодня

Время (UTC), дата Ветер
(°,м/с) 
Видим.   Явления Облачность Т
(°С)
Тd
(°С)
f(%) Тe
(°С)
Pmin
(гПа)
dP
(гПа)
Po
(мм)
O2
(г/м3)
Тmin Tmax R s Состояние
почвы
00 14.10.18 290 (З) 10 км    8/8 600 м 
[Sc]
-0.3 -4.8 72 1015.9  0.1  726  293           
03 14.10.18 330 (СЗ) 20000 м    8/8 600 м 
[Sc]
-0.9 -7.8 59 -3  1016.6  0.6  727  295  -1.6        сухая 
06 14.10.18 300 (СЗ) 20000 м    4/4 600 м 
[Sc]
+2.2 -8.4 45 1016.1  0.1  727  291           
09 14.10.18 320 (СЗ) 20000 м    8/8 600 м 
[Sc]
+2.8 -8.4 43 1016  727  291           
12 14.10.18 350 (С) 6{12}  20000 м    9/9 600 м 
[Sc]
+1.8 -8.2 47 -1  1016.9  0.7  727  292           
18 14.10.18 350 (С) 10 км    3/3 600 м 
[Sc]
-1 -6.4 67 -4  1018.7  0.8  728  295           
21 14.10.18 330 (СЗ) 10 км    8/0 средняя 
[Ac trans]
-0.2 -7 60 -2  1018.9  0.3  729  294           
00 15.10.18 330 (СЗ) 10 км    9/0 средняя 
[Ac trans]
-0.2 -7.1 60 -2  1019.1  0.2  729  295           
03 15.10.18 330 (СЗ) 5-10{10}  20000 м    10/10 600 м 
[Sc]
-0.5 -7.6 59 -4  1019.8  0.5  729  295  -1.1        сухая 
06 15.10.18 340 (С) 5{10}  20000 м    6/6 600 м 
[Sc]
+1.4 -7.6 51 -1  1019.9  0.5  729  293           
09 15.10.18 010 (С) 20000 м  в посл. час снег  10/10 600 м 
[Sc]
+1.9 -5.6 57 1020.3  0.5  730  293           
12 15.10.18 060 (СВ) 20000 м  {снег}  10/0 средняя 
[Ac As]
+1.5 -4 67 1021.7  1.3  731  293           
18 15.10.18 350 (С) 10 км    3/0 средняя 
[Ac trans]
-1.9 -3.9 86 -1  1024.4  1.2  732  298           
21 15.10.18 250 (З) 10 км  {снег}  10/0 средняя 
[Ac As]
-2 -3.4 90 -1  1024.8  0.3  733  298           
00 16.10.18 тихо ()   10 км  {снег}  10/0 средняя 
[Ac As]
-3.8 -4.9 92 -4  1025.3  0.2  733  300           
03 16.10.18 190 (Ю) 20000 м    8/0 средняя 
[Ac trans]
-3.7 -4.8 92 -5  1025.4  0.1  733  300  -5    0.2  равномерный
сухой снег
100% 
06 16.10.18 220 (ЮЗ) 20000 м    10/10 600 м 
[Sc]
+0.1 -3.2 78 -1  1024.8  0.2  733  295           
09 16.10.18 230 (ЮЗ) 20000 м  в посл. час снег  10/10 600 м 
[Sc]
+2 -3.4 67 1023.9  -0.5  732  293           
12 16.10.18 220 (ЮЗ) 20000 м  {снег}  10/10 600 м 
[Sc]
+2.7 -3.1 66 +1  1022.4  -1.3  731  292           
18 16.10.18 240 (ЮЗ) 10 км    8/8 600 м 
[Sc]
+1.7 -1.5 79 -1  1020.8  -1.3  730  293           
21 16.10.18 220 (ЮЗ) 10 км    8/8 600 м 
[Sc]
+2.1 -0.6 82 +1  1019.1  -1.6  729  291           
00 17.10.18 220 (ЮЗ) 10 км    ясно 
+2.2 +0.3 87 +1  1016.8  -2.2  727  291           
03 17.10.18 210 (ЮЗ) 20000 м    10/10 600 м 
[Sc]
+4.1 +2.3 88 +4  1014.3  -2.1  726  288  +0.2        сухая 
06 17.10.18 230 (ЮЗ) 4{10}  20000 м    9/9 600 м 
[Sc]
+8.4 +3.2 70 +7  1011.2  -2.3  724  283           
09 17.10.18 250 (З) 5{10}  20000 м    8/0 средняя 
[Ac trans]
+10.6 +2.2 56 +9  1008.4  -2.3  722  280           
Время (UTC), дата Ветер
(°,м/с) 
Видим.   Явления Облачность Т
(°С)
Тd
(°С)
f(%) Тe
(°С)
Pmin
(гПа)
dP
(гПа)
Po
(мм)
O2
(г/м3)
Тmin Tmax R s Состояние
почвы

Для получения пояснительной информации подведите курсор к названию столбца.

ПОГОДА в Магнитогорске - архив

Всё, что Вы хотите узнать о погоде в Магнитогорске - удобно и подробно!

Выберите нужную дату (начиная с 1 января 2015* года) и нажмите кнопку "Найти".
Будут отображены архивные сводки погоды по пункту Магнитогорск, начиная с указанной даты.


Отображать данные в формате CSV (для использования в таблицах Excel)


Внимание! Наш архив погоды предназначен исключительно для личного некоммерческого использования в познавательных целях. Если Вам необходимы официальные справки о состоянии погоды (для производственных, юридических, коммерческих и т.п. целей), обращайтесь в органы Росгидромета.

*Примечание: данная дата относится к архиву по метеостанциям СССР (Россия, СНГ, Балтия).
Архив по метеостанциям Зарубежной Европы и Азии (кроме Китая) хранится 10 дней, по другим регионам земного шара (Китай, Африка, Америка, Австралия, Океания) - 1 день.

Магнитогорск - район местоположения метеостанции


Название, широта, долгота, высота метеостанции:
Магнитогорск 53.3°ш. 59.1°д. 384 м над ур. моря [Российская Федерация]

Дополнительная информация

В oтличие oт бoльшинства пoгoдных сайтoв мы публикуем пoдрoбную метеoинфoрмацию в детальнoм прoфессиoнальнoм фoрмате.

Характеристики температуры и влажнoсти вoздуха измеряются на высoте 2 м в тени вдали oт зданий и деревьев.
Скoрoсть ветра измеряется на высoте 10 м (на урoвне рoста челoвека скoрoсть ветра ниже в 1.5-2 раза). Если метеoстанция нахoдится в гoрoде или в лесу, тo скoрoсть ветра занижена на 2-4 м/с пo сравнению с oткрытым местoм. Скoрoсть ветра над акватoриями крупных рек и oзёр, а также на вершинах хoлмoв на 2-5 м/с выше, чем в oбычных услoвиях.
Атмoсфернoе давление в разных тoчках местнoсти мoжет значительнo oтличаться oт давления на метеoстанции, в зависимoсти oт услoвий рельефа (при пoдъёме на 10 м давление пoнижается примернo на 1 мм рт.ст.).